Location: Albuquerque Trailhead
(34.7934°N, 106.3736°W)
Time: 03:30:58
(UTC+00:00)

Hubble Space Telescope - Visible Passes

Search period start: 07 December 2022 00:00
Search period end: 17 December 2022 00:00
Orbit: 530 x 534 km, 28.5° (Epoch: 06 December)

Date Brightness Start Highest point End Pass type
(mag) Time Alt. Az. Time Alt. Az. Time Alt. Az.
07 Dec 3.5 11:36:07 11° SSE 11:36:37 12° SSE 11:38:04 10° SE visible
07 Dec 2.6 13:13:39 10° SW 13:17:05 26° S 13:20:33 10° ESE visible
08 Dec 3.5 11:24:38 13° SSE 11:24:38 13° SSE 11:26:02 10° SE visible
08 Dec 2.4 13:00:50 10° SW 13:04:23 29° S 13:07:55 10° ESE visible
09 Dec 3.7 11:13:02 12° SE 11:13:02 12° SE 11:13:44 10° ESE visible
09 Dec 2.3 12:48:15 11° SW 12:51:39 31° S 12:55:16 10° ESE visible
10 Dec 2.1 12:36:32 18° SW 12:38:56 32° S 12:42:36 10° ESE visible
11 Dec 2.0 12:24:44 25° SW 12:26:13 33° S 12:29:55 10° ESE visible
12 Dec 1.9 12:12:53 32° SSW 12:13:29 33° S 12:17:12 10° ESE visible
13 Dec 2.0 12:00:59 33° S 12:00:59 33° S 12:04:28 10° ESE visible
14 Dec 2.4 11:49:04 28° SSE 11:49:04 28° SSE 11:51:41 10° ESE visible
14 Dec 2.8 13:25:39 10° WSW 13:28:36 19° SSW 13:31:33 10° SSE visible
15 Dec 3.0 11:37:07 21° SE 11:37:07 21° SE 11:38:54 10° SE visible
15 Dec 2.9 13:13:11 10° WSW 13:15:50 17° SSW 13:18:28 10° SSE visible
16 Dec 3.5 11:25:11 15° SE 11:25:11 15° SE 11:26:05 10° SE visible
16 Dec 3.1 13:00:49 10° SW 13:03:02 14° SSW 13:05:15 10° SSE visible
